Weather History for South Pass, WY

Change the Weather History Date:

Sunday, July 28, 2013

  Actual Average (KLND) Record (KLND)
Temperature  
Mean Temperature 60 °F 72 °F  
Max Temperature 73 °F 88 °F 99 °F (2006)
Min Temperature 48 °F 57 °F 42 °F (1911)
Degree Days  
Heating Degree Days 4 0  
Month to date heating degree days 11  
Since 1 June heating degree days 137  
Since 1 July heating degree days 11  
Cooling Degree Days 0 8  
Month to date cooling degree days 188  
Year to date cooling degree days 257  
Since 1 June cooling degree days 252  
Growing Degree Days 10 (Base 50)    
Moisture  
Dew Point 41 °F    
Average Humidity 55    
Maximum Humidity 100    
Minimum Humidity 18    
Precipitation  
Precipitation 0.00 in 0.03 in 0.95 in (1997)
Month to date precipitation 0.68  
Year to date precipitation 8.17  
Snow  
Snow 0.00 in 0.00 in - ()
Month to date snowfall 0.0  
Since 1 June snowfall 0.1  
Since 1 July snowfall 0.0  
Snow Depth -    
Sea Level Pressure  
Sea Level Pressure 30.11 in    
Wind  
Wind Speed 7 mph (WNW)    
Max Wind Speed 21 mph    
Max Gust Speed 25 mph    
Visibility 9 miles    
Events Fog    
T = Trace of Precipitation, MM = Missing Value Source: NWS Daily Summary

Daily Weather History Graph

Daily Weather History Graph

Search for Another Location

Airport:

Trip Planner

Search our weather history database for the weather conditions in past years. The results will help you decide how hot, cold, wet, or windy it might be!

Date:

Astronomy

Jul. 28, 2013 Rise Set
Actual Time 6:03 AM MDT 8:39 PM MDT
Civil Twilight 5:31 AM MDT 9:11 PM MDT
Nautical Twilight 4:50 AM MDT 9:51 PM MDT
Astronomical Twilight 4:04 AM MDT 10:37 PM MDT
Moon 11:52 PM MDT (7/28) 12:59 PM MDT (7/28)
Length of Visible Light 15h 40m
Length of Day
14h 35m
Waning Gibbous, 60% of the Moon is Illuminated
Jul 28
Waning Gibbous
Jul 29
Last Quarter
Aug 6
New
Aug 14
First Quarter
Aug 20
Full

Hourly Weather History & Observations

Time (MDT) Temp. Dew Point Humidity Pressure Visibility Wind Dir Wind Speed Gust Speed Precip Events Conditions
12:15 AM 50.0 °F 46.4 °F 87% 30.18 in 10.0 mi SW 5.8 mph - N/A   Clear
12:35 AM 50.0 °F 46.4 °F 87% 30.18 in 10.0 mi SSW 4.6 mph - N/A   Scattered Clouds
12:55 AM 50.0 °F 46.4 °F 87% 30.18 in 4.0 mi SSW 4.6 mph - N/A   Mist
1:15 AM 50.0 °F 48.2 °F 94% 30.17 in 2.0 mi Calm Calm - N/A   Mist
1:35 AM 50.0 °F 48.2 °F 94% 30.17 in 0.5 mi SW 4.6 mph - N/A Fog Fog
1:55 AM 50.0 °F 48.2 °F 94% 30.17 in 0.5 mi SSW 3.5 mph - N/A Fog Fog
2:15 AM 50.0 °F 50.0 °F 100% 30.16 in 0.2 mi SSW 4.6 mph - N/A Fog Fog
2:35 AM 50.0 °F 50.0 °F 100% 30.15 in 1.0 mi SSW 4.6 mph - N/A   Mist
2:55 AM 50.0 °F 50.0 °F 100% 30.15 in 1.2 mi SW 4.6 mph - N/A   Mist
3:15 AM 50.0 °F 48.2 °F 94% 30.14 in 1.5 mi WSW 6.9 mph - N/A   Mist
3:35 AM 50.0 °F 48.2 °F 94% 30.13 in 5.0 mi WSW 6.9 mph - N/A   Mist
3:55 AM 50.0 °F 48.2 °F 94% 30.12 in 4.0 mi WSW 6.9 mph - N/A   Overcast
4:15 AM 48.2 °F 46.4 °F 93% 30.11 in 5.0 mi West 6.9 mph - N/A   Overcast
4:35 AM 48.2 °F 46.4 °F 93% 30.11 in 10.0 mi WNW 3.5 mph - N/A   Overcast
4:55 AM 51.8 °F 44.6 °F 76% 30.11 in 10.0 mi WSW 5.8 mph - N/A   Overcast
5:15 AM 51.8 °F 44.6 °F 76% 30.11 in 10.0 mi WSW 5.8 mph - N/A   Overcast
5:35 AM 50.0 °F 44.6 °F 82% 30.12 in 10.0 mi WSW 3.5 mph - N/A   Overcast
5:55 AM 53.6 °F 42.8 °F 67% 30.12 in 10.0 mi West 5.8 mph - N/A   Overcast
6:15 AM 51.8 °F 42.8 °F 71% 30.12 in 10.0 mi West 4.6 mph - N/A   Overcast
6:35 AM 53.6 °F 42.8 °F 67% 30.12 in 10.0 mi West 5.8 mph - N/A   Overcast
6:55 AM 51.8 °F 44.6 °F 76% 30.12 in 10.0 mi West 6.9 mph - N/A   Overcast
7:15 AM 51.8 °F 44.6 °F 76% 30.12 in 10.0 mi West 6.9 mph - N/A   Overcast
7:35 AM 53.6 °F 44.6 °F 72% 30.12 in 10.0 mi West 4.6 mph - N/A   Overcast
7:55 AM 55.4 °F 44.6 °F 67% 30.12 in 10.0 mi Calm Calm - N/A   Overcast
8:15 AM 57.2 °F 42.8 °F 59% 30.12 in 10.0 mi SW 5.8 mph - N/A   Overcast
8:35 AM 59.0 °F 42.8 °F 55% 30.12 in 10.0 mi WSW 4.6 mph - N/A   Overcast
8:55 AM 60.8 °F 41.0 °F 48% 30.12 in 10.0 mi WSW 4.6 mph - N/A   Overcast
9:15 AM 62.6 °F 41.0 °F 45% 30.12 in 10.0 mi Calm Calm - N/A   Overcast
9:35 AM 62.6 °F 41.0 °F 45% 30.12 in 10.0 mi West 3.5 mph - N/A   Overcast
9:55 AM 60.8 °F 46.4 °F 59% 30.12 in 10.0 mi WSW 10.4 mph - N/A   Overcast
10:15 AM 62.6 °F 46.4 °F 55% 30.12 in 10.0 mi SW 10.4 mph - N/A   Overcast
10:35 AM 64.4 °F 44.6 °F 49% 30.12 in 10.0 mi SSW 10.4 mph 17.3 mph N/A   Overcast
10:55 AM 64.4 °F 44.6 °F 49% 30.11 in 10.0 mi SSW 12.7 mph 19.6 mph N/A   Overcast
11:15 AM 62.6 °F 42.8 °F 48% 30.11 in 10.0 mi NW 9.2 mph 20.7 mph N/A   Overcast
11:35 AM 64.4 °F 42.8 °F 45% 30.11 in 10.0 mi NNE 4.6 mph 19.6 mph N/A   Overcast
11:55 AM 64.4 °F 41.0 °F 42% 30.11 in 10.0 mi ENE 4.6 mph - N/A   Overcast
12:15 PM 64.4 °F 41.0 °F 42% 30.11 in 10.0 mi NE 3.5 mph - N/A   Overcast
12:35 PM 68.0 °F 41.0 °F 37% 30.10 in 10.0 mi NNW 3.5 mph - N/A   Overcast
12:55 PM 68.0 °F 39.2 °F 35% 30.10 in 10.0 mi NNE 5.8 mph - N/A   Overcast
1:15 PM 68.0 °F 37.4 °F 33% 30.10 in 10.0 mi NE 5.8 mph - N/A   Overcast
1:35 PM 68.0 °F 39.2 °F 35% 30.09 in 10.0 mi NNE 9.2 mph - N/A   Overcast
1:55 PM 66.2 °F 41.0 °F 40% 30.10 in 10.0 mi NE 8.1 mph - N/A   Overcast
2:15 PM 68.0 °F 39.2 °F 35% 30.09 in 10.0 mi NNE 5.8 mph - N/A   Overcast
2:35 PM 69.8 °F 35.6 °F 28% 30.08 in 10.0 mi North 3.5 mph - N/A   Overcast
2:55 PM 69.8 °F 32.0 °F 25% 30.08 in 10.0 mi Calm Calm - N/A   Overcast
3:15 PM 71.6 °F 33.8 °F 25% 30.06 in 10.0 mi NE 10.4 mph - N/A   Overcast
3:35 PM 73.4 °F 33.8 °F 23% 30.06 in 10.0 mi North 6.9 mph 23.0 mph N/A   Overcast
3:55 PM 73.4 °F 33.8 °F 23% 30.07 in 10.0 mi North 6.9 mph - N/A   Overcast
4:15 PM 73.4 °F 28.4 °F 19% 30.07 in 10.0 mi WSW 20.7 mph - N/A   Overcast
4:35 PM 73.4 °F 26.6 °F 18% 30.06 in 10.0 mi West 16.1 mph 24.2 mph N/A   Overcast
4:55 PM 73.4 °F 26.6 °F 18% 30.07 in 10.0 mi West 11.5 mph - N/A   Overcast
5:15 PM 71.6 °F 28.4 °F 20% 30.07 in 10.0 mi West 12.7 mph 19.6 mph N/A   Overcast
5:35 PM 71.6 °F 28.4 °F 20% 30.07 in 10.0 mi West 11.5 mph 17.3 mph N/A   Overcast
5:55 PM 71.6 °F 30.2 °F 22% 30.07 in 10.0 mi West 10.4 mph 17.3 mph N/A   Overcast
6:15 PM 69.8 °F 30.2 °F 23% 30.07 in 10.0 mi West 8.1 mph - N/A   Overcast
6:35 PM 69.8 °F 30.2 °F 23% 30.07 in 10.0 mi WNW 8.1 mph - N/A   Overcast
6:55 PM 71.6 °F 28.4 °F 20% 30.07 in 10.0 mi NNW 12.7 mph 16.1 mph N/A   Overcast
7:15 PM 69.8 °F 28.4 °F 21% 30.08 in 10.0 mi North 8.1 mph - N/A   Overcast
7:35 PM 64.4 °F 37.4 °F 37% 30.09 in 10.0 mi North 19.6 mph 25.3 mph N/A   Overcast
7:55 PM 62.6 °F 39.2 °F 42% 30.10 in 10.0 mi North 15.0 mph 21.9 mph N/A   Overcast
8:15 PM 60.8 °F 41.0 °F 48% 30.11 in 10.0 mi North 13.8 mph - N/A   Overcast
8:35 PM 60.8 °F 41.0 °F 48% 30.12 in 10.0 mi NNW 12.7 mph - N/A   Overcast
8:55 PM 59.0 °F 41.0 °F 51% 30.12 in 10.0 mi NNW 12.7 mph - N/A   Overcast
9:15 PM 59.0 °F 39.2 °F 48% 30.13 in 10.0 mi North 9.2 mph - N/A   Overcast
9:35 PM 57.2 °F 41.0 °F 55% 30.13 in 10.0 mi North 9.2 mph - N/A   Overcast
9:55 PM 55.4 °F 41.0 °F 58% 30.13 in 10.0 mi North 9.2 mph - N/A   Overcast
10:15 PM 55.4 °F 41.0 °F 58% 30.14 in 10.0 mi NNW 11.5 mph - N/A   Overcast
10:35 PM 53.6 °F 41.0 °F 62% 30.13 in 10.0 mi North 10.4 mph - N/A   Overcast
10:55 PM 53.6 °F 41.0 °F 62% 30.13 in 10.0 mi NNW 13.8 mph - N/A   Overcast
11:15 PM 53.6 °F 37.4 °F 54% 30.13 in 10.0 mi NNW 11.5 mph - N/A   Overcast
11:35 PM 53.6 °F 37.4 °F 54% 30.13 in 10.0 mi NNW 12.7 mph - N/A   Overcast
11:55 PM 53.6 °F 37.4 °F 54% 30.14 in 10.0 mi NW 8.1 mph - N/A   Overcast